Flag for Canada Weather past 2 weeks in Windsor, Ontario, Canada

Now
32 °F

Clear.


Feels Like: 25 °F
Forecast: 33 / 58 °F
Wind: 8 mph from East

Location: Windsor Weather Station


UV Index: 5 (Moderate)

Visibility: 15 mi


Pressure: 30.39 "Hg

Humidity: 80%

Dew point: 27 °F

Location of WindsorLocation

Historic Weather in Windsor

°F

Windsor temperature yesterday

Maximum temperature yesterday: 39 °F (at 4:00 PM)
Minimum temperature yesterday: 25 °F (at 3:00 AM)
Average temperature yesterday: 32 °F

Past Weeks' High & Low Weather Summary

 TemperatureHumidityPressure
High75 °F (Apr 13, 4:00 PM)100% (Apr 4, 4:00 AM)30.50 "Hg (Apr 4, 4:00 AM)
Low25 °F (Apr 16, 3:00 AM)26% (Apr 9, 4:00 PM)29.43 "Hg (Apr 4, 2:00 PM)
Average45 °F67%29.93 "Hg
* Reported Apr 2 2:00 AM — Apr 17 2:00 AM, Windsor, Weather by CustomWeather, © 2014

Note: Actual official high and low records may vary slightly from our data, if they occured in-between our weather recording intervals... More about our weather records

Advertising

Historic Weather Conditions — Data for Previous 24 hours

 ConditionsComfort  
Time TempWeatherWind HumidityBarometerVisibility
2:00 AM
Apr 17
32 °FClear.12 mph75%30.40 "Hg15 mi
1:00 AM32 °FPassing clouds.12 mph75%30.41 "Hg15 mi
12:00 AM32 °FPassing clouds.13 mph69%30.42 "Hg15 mi
11:00 PM
Apr 16
32 °FPassing clouds.10 mph64%30.43 "Hg15 mi
10:00 PM32 °FPassing clouds.9 mph69%30.45 "Hg15 mi
9:00 PM34 °FScattered clouds.9 mph60%30.44 "Hg15 mi
8:00 PM36 °FPartly sunny.12 mph56%30.42 "Hg15 mi
7:00 PM39 °FPartly sunny.12 mph48%30.43 "Hg15 mi
6:00 PM39 °FPartly sunny.8 mph48%30.43 "Hg15 mi
5:00 PM37 °FPartly sunny.10 mph38%30.44 "Hg15 mi
4:00 PM39 °FPartly sunny.12 mph52%30.45 "Hg15 mi
3:00 PM37 °FBroken clouds.10 mph56%30.46 "Hg15 mi
2:00 PM37 °FPartly sunny.7 mph56%30.48 "Hg15 mi
1:00 PM37 °FPartly sunny.8 mph52%30.48 "Hg15 mi
12:00 PM37 °FPassing clouds.9 mph48%30.50 "Hg15 mi
11:00 AM34 °FScattered clouds.5 mph51%30.49 "Hg15 mi
10:00 AM34 °FScattered clouds.5 mph41%30.48 "Hg15 mi
9:00 AM30 °FPassing clouds.3 mph51%30.47 "Hg15 mi
8:00 AM27 °FPassing clouds.3 mph64%30.45 "Hg15 mi
7:00 AM25 °FPassing clouds.6 mph74%30.41 "Hg15 mi
6:00 AM25 °FClear.3 mph80%30.38 "Hg15 mi
5:00 AM25 °FClear.2 mph69%30.34 "Hg15 mi
4:00 AM25 °FClear.No wind74%30.32 "Hg15 mi
3:00 AM25 °FClear.No wind63%30.29 "Hg15 mi
Weather by CustomWeather, © 2014

See weather overview